Flag for Netherlands Weather past 2 weeks in Amersfoort, Netherlands

Now
77 °F

Passing clouds.


Feels Like: 79 °F
Forecast: 59 / 77 °F
Wind: 16 mph from Northeast

Location: Deelen

Current Time: Jul 23, 2014 at 12:58:50 PM

Latest Report: Jul 23, 2014 at 11:55 AM


Visibility: N/A

Pressure: 30.09 "Hg

Humidity: 54%

Dew point: 59 °F

Location of AmersfoortLocation

Historic Weather in Amersfoort — Graph

°F

Amersfoort temperature yesterday

Maximum temperature yesterday: 81 °F (at 3:25 PM)
Minimum temperature yesterday: 64 °F (at 4:55 AM)
Average temperature yesterday: 71 °F

Past Weeks' High & Low Weather Summary

 TemperatureHumidityPressure
High93 °F (Jul 19, 5:25 PM)100% (Jul 8, 11:25 AM)30.18 "Hg (Jul 8, 11:25 AM)
Low54 °F (Jul 16, 5:25 AM)26% (Jul 19, 2:25 PM)29.68 "Hg (Jul 9, 2:55 PM)
Average69 °F79%29.93 "Hg
* Reported Jul 8 11:25 AM — Jul 23 11:25 AM, Amersfoort, Weather by CustomWeather, © 2014

Note: Actual official high and low records may vary slightly from our data, if they occured in-between our weather recording intervals... More about our weather records

Advertising

Amersfoort weather history for previous 24 hours

 ConditionsComfort  
Time TempWeatherWind HumidityBarometerVisibility
11:25 AM
Jul 23
77 °FPassing clouds.14 mph57%30.09 "HgN/A
10:55 AM75 °FPassing clouds.15 mph61%30.12 "HgN/A
9:55 AM72 °FMild.14 mph69%30.12 "HgN/A
7:55 AM66 °FOvercast.12 mph78%30.12 "HgN/A
7:25 AM64 °FMild.13 mph83%30.12 "HgN/A
6:55 AM64 °FMild.14 mph83%30.09 "HgN/A
6:25 AM66 °FMild.13 mph83%30.09 "HgN/A
5:55 AM66 °FMild.10 mph83%30.09 "HgN/A
5:25 AM66 °FOvercast.12 mph83%30.09 "HgN/A
4:55 AM66 °FPassing clouds.10 mph83%30.09 "HgN/A
4:25 AM66 °FOvercast.9 mph83%30.09 "HgN/A
3:55 AM68 °FPassing clouds.9 mph83%30.09 "HgN/A
3:25 AM68 °FOvercast.8 mph83%30.09 "HgN/A
2:55 AM68 °FOvercast.10 mph83%30.09 "HgN/A
2:25 AM68 °FOvercast.10 mph83%30.12 "HgN/A
1:55 AM68 °FPassing clouds.10 mph83%30.12 "HgN/A
6:55 PM
Jul 22
79 °FWarm.13 mph54%30.07 "HgN/A
6:25 PM81 °FScattered clouds.13 mph51%30.07 "HgN/A
5:55 PM81 °FPartly sunny.10 mph54%30.07 "HgN/A
5:25 PM81 °FPassing clouds.13 mph54%30.07 "HgN/A
4:55 PM79 °FScattered clouds.12 mph54%30.07 "HgN/A
4:25 PM81 °FPassing clouds.14 mph51%30.07 "HgN/A
3:55 PM81 °FPassing clouds.15 mph54%30.07 "HgN/A
3:25 PM81 °FWarm.15 mph54%30.07 "HgN/A
2:55 PM79 °FWarm.15 mph54%30.07 "HgN/A
2:25 PM77 °FPassing clouds.12 mph61%30.07 "HgN/A
1:55 PM77 °FPassing clouds.12 mph65%30.07 "HgN/A
1:25 PM75 °FMild.12 mph61%30.09 "HgN/A
12:55 PM75 °FMild.12 mph61%30.09 "HgN/A
12:25 PM73 °FPassing clouds.12 mph74%30.09 "HgN/A
Weather by CustomWeather, © 2014

See weather overviewHow to use our weather pages